Location: Bamazo
(6.7448°N, 10.8189°W)
Time: 01:30:59
(UTC+00:00)

BLOCK-DM UPPERSTAGE - Pass Details

Date: 18 September 2020
Orbit: 659 x 35829 km, 0.9° (Epoch: 20 October)

Event Time Altitude Azimuth Distance (km) Brightness Sun altitude
Rises 19:54:14 0° 262° (W) 5,740 9.5 -18.9°
Reaches altitude 10° 19:59:26 10° 254° (WSW) 3,268 7.8 -20.2°
Maximum altitude 20:04:55 35° 186° (S) 1,146 4.4 -21.6°
Enters shadow 20:05:49 31° 157° (SSE) 1,180 4.2 -21.8°
